Location: ????????
(55.6333°N, 37.7000°E)
Time: 16:38:38
(UTC+00:00)

PSLV R/B - Pass Details

Date: 19 May 2025
Orbit: 586 x 683 km, 97.9° (Epoch: 20 June)

Event Time Altitude Azimuth Distance (km) Brightness Sun altitude
Rises 21:00:58 0° 17° (NNE) 2,859 8.3 -14.2°
Reaches altitude 10° 21:03:12 10° 22° (NNE) 1,942 7.1 -14.2°
Maximum altitude 21:07:20 56° 101° (E) 706 3.7 -14.3°
Enters shadow 21:09:37 25° 171° (S) 1,218 4.4 -14.3°
